Regional Weather Roundup
Issued by NWS

Home | Current Version | Previous Version | Graphics & Text | Print | Product List | Glossary On
Versions: 1 2 3 4 5 6 7 8 9 10 11 12 13 14 15 16 17 18 19 20 21 22 23 24 25 26 27 28 29 30 31 32 33 34 35 36 37 38 39 40 41 42 43 44 45 46 47 48 49 50
000
ASUS43 KOAX 271810
RWRNE

WEATHER ROUNDUP FOR NEBRASKA
NATIONAL WEATHER SERVICE OMAHA NE
100 PM CDT THU JUL 27 2017

NOTES: SATELLITE DATA IS BEING USED TO AUGMENT CLOUD COVER ABOVE
       12000 FEET.
       "FAIR" INDICATES FEW OR NO CLOUDS BELOW 12,000 FEET WITH NO
       SIGNIFICANT WEATHER AND/OR OBSTRUCTIONS TO VISIBILITY.


NEZ001>004-019>022-054>056-271900-
NEBRASKA PANHANDLE

CITY           SKY/WX    TMP DP  RH WIND       PRES   REMARKS
SCOTTSBLUFF    LGT RAIN  78  65  63 SE20      30.16F
6HR MIN TEMP:  67; 6HR MAX TEMP:  78; 6HR PCP: TRACE;

ALLIANCE       CLOUDY    76  60  57 SE16G23   30.19F
6HR MIN TEMP:  67; 6HR MAX TEMP:  76;

CHADRON        CLOUDY    76  59  55 SE20      30.13F
6HR MIN TEMP:  70; 6HR MAX TEMP:  79; 6HR PCP:  0.02;

GORDON         LGT RAIN  66  53  61 SE10      30.19F
6HR MIN TEMP:  64; 6HR MAX TEMP:  69; 6HR PCP:  0.08;

KIMBALL        PTSUNNY   79  62  55 S14       30.23F
SIDNEY         CLOUDY    80  63  55 S16       30.22F
6HR MIN TEMP:  65; 6HR MAX TEMP:  80;

$$

NEZ057>060-069>072-079>082-271900-
SOUTHWEST NEBRASKA

CITY           SKY/WX    TMP DP  RH WIND       PRES   REMARKS
NORTH PLATTE   SUNNY     81  55  40 SE7       30.16F
6HR MIN TEMP:  67; 6HR MAX TEMP:  81;

IMPERIAL       PTSUNNY   79  62  56 VRB6      30.18F
6HR MIN TEMP:  69; 6HR MAX TEMP:  79; 6HR PCP: TRACE;

LEXINGTON      SUNNY     78  61  56 E7        30.14F
MCCOOK         CLOUDY    81  63  54 E8        30.14F
6HR MIN TEMP:  70; 6HR MAX TEMP:  82;

OGALLALA       CLOUDY    74  66  75 SE3       30.19F
$$

NEZ005>010-023>029-035>040-094-271900-
NORTH CENTRAL NEBRASKA

CITY           SKY/WX    TMP DP  RH WIND       PRES   REMARKS
VALENTINE      CLOUDY    80  53  39 SE9       30.16F
6HR MIN TEMP:  64; 6HR MAX TEMP:  80;

AINSWORTH      CLOUDY    77  59  54 SE6       30.17S
BROKEN BOW     SUNNY     80  57  45 VRB6      30.15F
6HR MIN TEMP:  60; 6HR MAX TEMP:  81;

O`NEILL        CLOUDY    76  60  57 E7        30.15F
ORD            SUNNY     80  57  45 NE6       30.12F
6HR MIN TEMP:  61; 6HR MAX TEMP:  80;

THEDFORD       CLOUDY    80  51  36 S8        30.18F
$$

NEZ041-046>049-061>064-073>077-083>087-271900-
SOUTH CENTRAL NEBRASKA

CITY           SKY/WX    TMP DP  RH WIND       PRES   REMARKS
GRAND ISLAND   SUNNY     79  62  56 NE10      30.12F
6HR MIN TEMP:  64; 6HR MAX TEMP:  80;

AURORA         MOSUNNY   77  65  65 N8        30.11F
HASTINGS       MOSUNNY   78  63  59 N6        30.13F
6HR MIN TEMP:  67; 6HR MAX TEMP:  78;

HEBRON         CLOUDY    81  66  61 NE7       30.07F
HOLDREGE       MOSUNNY   76  64  67 NE5       30.14F
KEARNEY        MOSUNNY   77  61  57 E8        30.13F
YORK           MOSUNNY   77  64  65 NE8       30.10F
$$

NEZ011>018-030>034-042>045-271900-
NORTHEAST NEBRASKA

CITY           SKY/WX    TMP DP  RH WIND       PRES   REMARKS
NORFOLK        SUNNY     81  59  47 NE12      30.10F
6HR MIN TEMP:  62; 6HR MAX TEMP:  81;

ALBION         MOSUNNY   78  63  59 NE9       30.12F
BLAIR          PTSUNNY   80  64  58 N9        30.07F
COLUMBUS       MOSUNNY   79  64  60 NE7       30.10F
FREMONT        PTSUNNY   80  62  53 N7        30.08F
TEKAMAH        MOSUNNY   82  64  54 NE9       30.06F
6HR MIN TEMP:  64; 6HR MAX TEMP:  82;

WAYNE          PTSUNNY   80  63  56 NE8       30.10F
$$

NEZ050>053-065>068-078-088>093-271900-
SOUTHEAST NEBRASKA

CITY           SKY/WX    TMP DP  RH WIND       PRES   REMARKS
LINCOLN        MOSUNNY   81  66  60 NE9       30.06F
6HR MIN TEMP:  68; 6HR MAX TEMP:  82;

OMAHA EPPLEY   MOSUNNY   83  63  50 N13       30.05F
6HR MIN TEMP:  67; 6HR MAX TEMP:  84;

BEATRICE       PTSUNNY   81  70  69 N10       30.05F
FALLS CITY     CLOUDY    83  71  67 NE9       30.00F
6HR MIN TEMP:  71; 6HR MAX TEMP:  84;

NEBRASKA CITY  CLOUDY    80  72  77 N9        30.03F
PLATTSMOUTH    SUNNY     81  64  56 N6        30.05F
$$

NEZ044-045-051>053-067-271900-
OMAHA AREA

CITY           SKY/WX    TMP DP  RH WIND       PRES   REMARKS
OMAHA EPPLEY   MOSUNNY   83  63  50 N13       30.05F
6HR MIN TEMP:  67; 6HR MAX TEMP:  84;

BLAIR          PTSUNNY   80  64  58 N9        30.07F
FREMONT        PTSUNNY   80  62  53 N7        30.08F
MILLARD        MOSUNNY   83  64  53 N7        30.06S
OFFUTT AFB     SUNNY     83  62  48 N10       30.04F
PLATTSMOUTH    SUNNY     81  64  56 N6        30.05F
WAHOO          FAIR      79  65  62 N9        30.07F
$$




USA.gov is the U.S. government's official web portal to all federal, state and local government web resources and services.